Time,TemperatureF,DewpointF,PressureIn,WindDirection,WindDirectionDegrees,WindSpeedMPH,WindSpeedGustMPH,Humidity,HourlyPrecipIn,Conditions,Clouds,dailyrainin,SolarRadiationWatts/m^2,SoftwareType,DateUTC
2013-12-05 00:21:00,6.0,1.0,-100.00,West,280,0.0,2.0,81,0.00,,,0.00,0.000000,,2013-12-05 08:21:00,
2013-12-05 00:30:00,5.0,-1.0,-100.00,SE,140,1.0,4.0,77,0.00,,,0.00,0.000000,,2013-12-05 08:30:00,
2013-12-05 01:22:00,5.0,-1.0,-100.00,SE,140,1.0,4.0,77,0.00,,,0.00,0.000000,,2013-12-05 09:22:00,
2013-12-05 02:30:00,5.0,0.0,-100.00,NW,306,0.0,4.0,81,-99.99,,,0.00,0.000000,,2013-12-05 10:30:00,
2013-12-05 03:12:00,5.0,0.0,-100.00,NW,306,0.0,4.0,81,-99.99,,,0.00,0.000000,,2013-12-05 11:12:00,
2013-12-05 03:22:00,5.0,0.0,-100.00,NW,306,0.0,4.0,81,-99.99,,,0.00,0.000000,,2013-12-05 11:22:00,
2013-12-05 04:30:00,4.0,-1.0,-100.00,WNW,297,0.0,4.0,81,-99.99,,,0.00,0.000000,,2013-12-05 12:30:00,
2013-12-05 04:52:00,4.0,-1.0,-100.00,WNW,297,0.0,4.0,81,-99.99,,,0.00,0.000000,,2013-12-05 12:52:00,
2013-12-05 05:02:00,4.0,-1.0,-100.00,WNW,297,0.0,4.0,81,-99.99,,,0.00,0.000000,,2013-12-05 13:02:00,
2013-12-05 05:11:00,4.0,-1.0,-100.00,WNW,297,0.0,4.0,81,-99.99,,,0.00,0.000000,,2013-12-05 13:11:00,
2013-12-05 05:21:00,4.0,-1.0,-100.00,WNW,297,0.0,4.0,81,-99.99,,,0.00,0.000000,,2013-12-05 13:21:00,
2013-12-05 06:30:00,3.0,-1.0,-100.00,NNW,328,0.0,0.0,84,-99.99,,,0.00,0.000000,,2013-12-05 14:30:00,
2013-12-05 07:11:00,3.0,-1.0,-100.00,NNW,328,0.0,0.0,84,-99.99,,,0.00,0.000000,,2013-12-05 15:11:00,
2013-12-05 07:22:00,3.0,-1.0,-100.00,NNW,328,0.0,0.0,84,-99.99,,,0.00,0.000000,,2013-12-05 15:22:00,
2013-12-05 07:30:00,6.0,2.0,-100.00,WNW,289,0.0,0.0,84,0.00,,,0.00,1.000000,,2013-12-05 15:30:00,
2013-12-05 07:54:00,6.0,2.0,-100.00,WNW,289,0.0,0.0,84,0.00,,,0.00,1.000000,,2013-12-05 15:54:00,
2013-12-05 08:04:00,6.0,2.0,-100.00,WNW,289,0.0,0.0,84,0.00,,,0.00,1.000000,,2013-12-05 16:04:00,
2013-12-05 08:13:00,6.0,2.0,-100.00,WNW,289,0.0,0.0,84,0.00,,,0.00,1.000000,,2013-12-05 16:13:00,
2013-12-05 08:23:00,6.0,2.0,-100.00,WNW,289,0.0,0.0,84,0.00,,,0.00,1.000000,,2013-12-05 16:23:00,
2013-12-05 08:30:00,8.0,4.0,-100.00,WSW,238,0.0,0.0,84,0.00,,,0.00,33.000000,,2013-12-05 16:30:00,
2013-12-05 08:53:00,8.0,4.0,-100.00,WSW,238,0.0,0.0,84,0.00,,,0.00,33.000000,,2013-12-05 16:53:00,
2013-12-05 09:02:00,8.0,4.0,-100.00,WSW,238,0.0,0.0,84,0.00,,,0.00,33.000000,,2013-12-05 17:02:00,
2013-12-05 09:12:00,8.0,4.0,-100.00,WSW,238,0.0,0.0,84,0.00,,,0.00,33.000000,,2013-12-05 17:12:00,
2013-12-05 09:23:00,8.0,4.0,-100.00,WSW,238,0.0,0.0,84,0.00,,,0.00,33.000000,,2013-12-05 17:23:00,
2013-12-05 09:30:00,17.0,14.0,-100.00,SE,128,0.0,0.0,86,0.00,,,0.00,168.000000,,2013-12-05 17:30:00,
2013-12-05 09:52:00,17.0,14.0,-100.00,SE,128,0.0,0.0,86,0.00,,,0.00,168.000000,,2013-12-05 17:52:00,
2013-12-05 10:02:00,17.0,14.0,-100.00,SE,128,0.0,0.0,86,0.00,,,0.00,168.000000,,2013-12-05 18:02:00,
2013-12-05 10:12:00,17.0,14.0,-100.00,SE,128,0.0,0.0,86,0.00,,,0.00,168.000000,,2013-12-05 18:12:00,
2013-12-05 10:22:00,17.0,14.0,-100.00,SE,128,0.0,0.0,86,0.00,,,0.00,168.000000,,2013-12-05 18:22:00,
2013-12-05 10:30:00,21.0,17.0,-100.00,North,6,0.0,0.0,84,0.00,,,0.00,324.000000,,2013-12-05 18:30:00,
2013-12-05 10:52:00,21.0,17.0,-100.00,North,6,0.0,0.0,84,0.00,,,0.00,324.000000,,2013-12-05 18:52:00,
2013-12-05 11:02:00,21.0,17.0,-100.00,North,6,0.0,0.0,84,0.00,,,0.00,324.000000,,2013-12-05 19:02:00,
2013-12-05 11:12:00,21.0,17.0,-100.00,North,6,0.0,0.0,84,0.00,,,0.00,324.000000,,2013-12-05 19:12:00,
2013-12-05 11:21:00,21.0,17.0,-100.00,North,6,0.0,0.0,84,0.00,,,0.00,324.000000,,2013-12-05 19:21:00,
2013-12-05 11:30:00,21.0,17.0,-100.00,WNW,285,1.0,4.0,84,0.00,,,0.00,286.000000,,2013-12-05 19:30:00,
2013-12-05 11:52:00,21.0,17.0,-100.00,WNW,285,1.0,4.0,84,0.00,,,0.00,286.000000,,2013-12-05 19:52:00,
2013-12-05 12:02:00,21.0,17.0,-100.00,WNW,285,1.0,4.0,84,0.00,,,0.00,286.000000,,2013-12-05 20:02:00,
2013-12-05 12:11:00,21.0,17.0,-100.00,WNW,285,1.0,4.0,84,0.00,,,0.00,286.000000,,2013-12-05 20:11:00,
2013-12-05 12:22:00,21.0,17.0,-100.00,WNW,285,1.0,4.0,84,0.00,,,0.00,286.000000,,2013-12-05 20:22:00,
2013-12-05 12:30:00,25.0,14.0,-100.00,East,83,2.0,4.0,62,0.00,,,0.00,361.000000,,2013-12-05 20:30:00,
2013-12-05 13:12:00,25.0,14.0,-100.00,East,83,2.0,4.0,62,0.00,,,0.00,361.000000,,2013-12-05 21:12:00,
2013-12-05 13:21:00,25.0,14.0,-100.00,East,83,2.0,4.0,62,0.00,,,0.00,361.000000,,2013-12-05 21:21:00,
2013-12-05 13:30:00,26.0,11.0,-100.00,SSW,195,2.0,6.0,52,0.00,,,0.00,340.000000,,2013-12-05 21:30:00,
2013-12-05 13:53:00,26.0,11.0,-100.00,SSW,195,2.0,6.0,52,0.00,,,0.00,340.000000,,2013-12-05 21:53:00,
2013-12-05 14:03:00,26.0,11.0,-100.00,SSW,195,2.0,6.0,52,0.00,,,0.00,340.000000,,2013-12-05 22:03:00,
2013-12-05 14:13:00,26.0,11.0,-100.00,SSW,195,2.0,6.0,52,0.00,,,0.00,340.000000,,2013-12-05 22:13:00,
2013-12-05 14:23:00,26.0,11.0,-100.00,SSW,195,2.0,6.0,52,0.00,,,0.00,340.000000,,2013-12-05 22:23:00,
2013-12-05 14:30:00,26.0,11.0,-100.00,East,92,0.0,5.0,52,0.00,,,0.00,220.000000,,2013-12-05 22:30:00,
2013-12-05 14:52:00,26.0,11.0,-100.00,East,92,0.0,5.0,52,0.00,,,0.00,220.000000,,2013-12-05 22:52:00,
2013-12-05 15:02:00,26.0,11.0,-100.00,East,92,0.0,5.0,52,0.00,,,0.00,220.000000,,2013-12-05 23:02:00,
2013-12-05 15:12:00,26.0,11.0,-100.00,East,92,0.0,5.0,52,0.00,,,0.00,220.000000,,2013-12-05 23:12:00,
2013-12-05 15:22:00,26.0,11.0,-100.00,East,92,0.0,5.0,52,0.00,,,0.00,220.000000,,2013-12-05 23:22:00,
2013-12-05 15:30:00,25.0,9.0,-100.00,North,355,0.0,5.0,51,0.00,,,0.00,167.000000,,2013-12-05 23:30:00,
2013-12-05 15:53:00,25.0,9.0,-100.00,North,355,0.0,5.0,51,0.00,,,0.00,167.000000,,2013-12-05 23:53:00,
2013-12-05 16:02:00,25.0,9.0,-100.00,North,355,0.0,5.0,51,0.00,,,0.00,167.000000,,2013-12-06 00:02:00,
2013-12-05 16:11:00,25.0,9.0,-100.00,North,355,0.0,5.0,51,0.00,,,0.00,167.000000,,2013-12-06 00:11:00,
2013-12-05 16:21:00,25.0,9.0,-100.00,North,355,0.0,5.0,51,0.00,,,0.00,167.000000,,2013-12-06 00:21:00,
2013-12-05 16:30:00,19.0,10.0,-100.00,SSW,212,0.0,5.0,67,0.00,,,0.00,23.000000,,2013-12-06 00:30:00,
2013-12-05 16:52:00,19.0,10.0,-100.00,SSW,212,0.0,5.0,67,0.00,,,0.00,23.000000,,2013-12-06 00:52:00,
2013-12-05 17:01:00,19.0,10.0,-100.00,SSW,212,0.0,5.0,67,0.00,,,0.00,23.000000,,2013-12-06 01:01:00,
2013-12-05 17:11:00,19.0,10.0,-100.00,SSW,212,0.0,5.0,67,0.00,,,0.00,23.000000,,2013-12-06 01:11:00,
2013-12-05 17:21:00,19.0,10.0,-100.00,SSW,212,0.0,5.0,67,0.00,,,0.00,23.000000,,2013-12-06 01:21:00,
2013-12-05 17:30:00,13.0,5.0,-100.00,WSW,253,0.0,3.0,71,0.00,,,0.00,0.000000,,2013-12-06 01:30:00,
2013-12-05 18:11:00,13.0,5.0,-100.00,WSW,253,0.0,3.0,71,0.00,,,0.00,0.000000,,2013-12-06 02:11:00,
2013-12-05 18:22:00,13.0,5.0,-100.00,WSW,253,0.0,3.0,71,0.00,,,0.00,0.000000,,2013-12-06 02:22:00,
2013-12-05 18:30:00,11.0,4.0,-100.00,WNW,282,3.0,5.0,73,0.00,,,0.00,0.000000,,2013-12-06 02:30:00,
2013-12-05 19:11:00,11.0,4.0,-100.00,WNW,282,3.0,5.0,73,0.00,,,0.00,0.000000,,2013-12-06 03:11:00,
2013-12-05 19:21:00,11.0,4.0,-100.00,WNW,282,3.0,5.0,73,0.00,,,0.00,0.000000,,2013-12-06 03:21:00,
2013-12-05 19:30:00,12.0,4.0,-100.00,West,270,3.0,4.0,71,0.00,,,0.00,0.000000,,2013-12-06 03:30:00,
2013-12-05 19:53:00,12.0,4.0,-100.00,West,270,3.0,4.0,71,0.00,,,0.00,0.000000,,2013-12-06 03:53:00,
2013-12-05 20:03:00,12.0,4.0,-100.00,West,270,3.0,4.0,71,0.00,,,0.00,0.000000,,2013-12-06 04:03:00,
2013-12-05 20:12:00,12.0,4.0,-100.00,West,270,3.0,4.0,71,0.00,,,0.00,0.000000,,2013-12-06 04:12:00,
2013-12-05 20:23:00,12.0,4.0,-100.00,West,270,3.0,4.0,71,0.00,,,0.00,0.000000,,2013-12-06 04:23:00,
2013-12-05 20:30:00,14.0,6.0,-100.00,West,264,4.0,5.0,71,0.00,,,0.00,0.000000,,2013-12-06 04:30:00,
2013-12-05 20:53:00,14.0,6.0,-100.00,West,264,4.0,5.0,71,0.00,,,0.00,0.000000,,2013-12-06 04:53:00,
2013-12-05 21:02:00,14.0,6.0,-100.00,West,264,4.0,5.0,71,0.00,,,0.00,0.000000,,2013-12-06 05:02:00,
2013-12-05 21:12:00,14.0,6.0,-100.00,West,264,4.0,5.0,71,0.00,,,0.00,0.000000,,2013-12-06 05:12:00,
2013-12-05 21:22:00,14.0,6.0,-100.00,West,264,4.0,5.0,71,0.00,,,0.00,0.000000,,2013-12-06 05:22:00,
2013-12-05 21:30:00,12.0,4.0,-100.00,West,267,2.0,4.0,71,0.00,,,0.00,0.000000,,2013-12-06 05:30:00,
2013-12-05 21:53:00,12.0,4.0,-100.00,West,267,2.0,4.0,71,0.00,,,0.00,0.000000,,2013-12-06 05:53:00,
2013-12-05 22:02:00,12.0,4.0,-100.00,West,267,2.0,4.0,71,0.00,,,0.00,0.000000,,2013-12-06 06:02:00,
2013-12-05 22:12:00,12.0,4.0,-100.00,West,267,2.0,4.0,71,0.00,,,0.00,0.000000,,2013-12-06 06:12:00,
2013-12-05 22:22:00,12.0,4.0,-100.00,West,267,2.0,4.0,71,0.00,,,0.00,0.000000,,2013-12-06 06:22:00,
2013-12-05 22:30:00,17.0,8.0,-100.00,NNW,335,4.0,5.0,68,0.00,,,0.00,0.000000,,2013-12-06 06:30:00,
2013-12-05 22:52:00,17.0,8.0,-100.00,NNW,335,4.0,5.0,68,0.00,,,0.00,0.000000,,2013-12-06 06:52:00,
2013-12-05 23:02:00,17.0,8.0,-100.00,NNW,335,4.0,5.0,68,0.00,,,0.00,0.000000,,2013-12-06 07:02:00,
2013-12-05 23:11:00,17.0,8.0,-100.00,NNW,335,4.0,5.0,68,0.00,,,0.00,0.000000,,2013-12-06 07:11:00,
2013-12-05 23:22:00,17.0,8.0,-100.00,NNW,335,4.0,5.0,68,0.00,,,0.00,0.000000,,2013-12-06 07:22:00,
2013-12-05 23:30:00,13.0,4.0,-100.00,West,275,5.0,8.0,67,0.00,,,0.00,0.000000,,2013-12-06 07:30:00,
2013-12-05 23:52:00,13.0,4.0,-100.00,West,275,5.0,8.0,67,0.00,,,0.00,0.000000,,2013-12-06 07:52:00,